Weather observations for the past three days for
Las Vegas, North Las Vegas Airport
Metric (Imperial)
Date Time (pdt) Wind (kph) Vis. (km) Weather Sky Cond. Temperature (ºC) Relative Humidity Wind Chill (°C) Heat Index (°C) Pressure Precipitation (cm)
Air Dwpt 6 hour altimeter (cm) sea level (mb) 1 hr 3 hr 6 hr
Max. Min.
21 07:53 N 6 16.09 Fair CLR 22.2 -5 16% 76.05 1013.3
21 06:53 N 11 16.09 Fair CLR 22.2 -5 16% 75.97 1012.5
21 05:53 N 17 G 28 16.09 Fair CLR 20.6 -6.7 15% 75.95 1012.1
21 04:53 N 15 16.09 Fair CLR 21.7 -4.4 26.7 21.7 17% 75.9 1011.4
21 03:53 N 15 16.09 Fair CLR 22.8 -5 15% 75.82 1010.3
21 02:53 NW 19 G 31 16.09 Fair CLR 23.3 -5.6 14% 75.74 1009.4
21 01:53 NW 22 G 41 16.09 Fair CLR 23.9 -4.4 15% 24 75.69 1008.5
21 00:53 Calm 16.09 Fair CLR 25.6 -5 13% 25 75.67 1007.8
20 23:53 N 13 16.09 Fair CLR 25.6 -3.3 15% 25 75.62 1007.2
20 22:53 Vrbl 6 16.09 Fair CLR 26.1 -1.7 30 25 16% 25 75.54 1006.2 0.03
20 21:53 SW 9 16.09 Fair CLR 27.2 -1.1 16% 26 75.49 1005.4
20 20:53 W 7 16.09 Fair CLR 28.3 -1.7 14% 27 75.44 1005.1
20 19:53 SW 11 16.09 Fair CLR 28.9 -2.8 12% 27 75.41 1004.6 0.03
20 18:53 S 13 16.09 Fair CLR 28.9 -1.7 13% 27 75.39 1004.3 0.03
20 17:53 SW 24 G 65 16.09 Partly Cloudy FEW065 SCT090 SCT110 28.9 -1.1 14% 27 75.41 1004.8
20 16:53 NW 11 16.09 Fair CLR 30 -0.6 31.1 27.8 14% 28 75.39 1004.3
20 15:53 N 17 16.09 A Few Clouds FEW110 30.6 0 14% 29 75.39 1004.6
20 14:53 N 15 16.09 Light Rain FEW080 BKN110 28.9 2.8 19% 27 75.44 1005.2
20 13:53 Calm 16.09 Mostly Cloudy BKN110 30 0 14% 28 75.44 1004.9
20 12:53 S 24 G 41 16.09 Fair CLR 31.1 1.1 15% 29 75.46 1005.2
20 11:53 Vrbl 6 16.09 Fair CLR 29.4 0 15% 28 75.54 1006.1
20 10:53 NW 17 G 37 16.09 Fair CLR 29.4 0 29.4 21.1 15% 28 75.57 1006.3
20 09:53 N 20 G 28 16.09 Fair CLR 28.9 0 15% 27 75.57 1006.2
20 08:53 S 13 16.09 Fair CLR 26.1 1.7 20% 26 75.57 1006.3
20 07:53 S 7 16.09 Fair CLR 24.4 2.2 23% 25 75.54 1006.3
20 06:53 S 6 16.09 Fair CLR 22.8 0 22% 75.51 1005.9
20 05:53 Calm 16.09 Fair CLR 21.7 -1.1 22% 75.44 1004.8
20 04:53 NW 11 16.09 Fair CLR 21.7 -1.1 28.3 21.7 22% 75.41 1004.6
20 03:53 W 19 16.09 Fair CLR 22.8 -1.1 20% 75.36 1003.8
20 02:53 S 20 16.09 Fair CLR 23.9 -1.1 19% 24 75.36 1003.4
20 01:53 SE 13 G 44 16.09 Fair CLR 25 -1.7 17% 25 75.41 1004.4
20 00:53 S 26 G 43 16.09 Fair CLR 26.1 -1.1 17% 25 75.44 1004.5
19 23:53 S 28 16.09 Fair CLR 27.2 -1.1 16% 26 75.44 1004.7
19 22:53 S 26 G 37 16.09 Fair CLR 28.3 -2.8 35 28.3 13% 27 75.44 1004.9
19 21:53 SW 30 G 44 16.09 Fair CLR 30.6 -6.7 8% 29 75.44 1004.8
19 20:53 SW 28 G 44 16.09 Fair CLR 31.7 -3.3 10% 30 75.44 1004.6
19 19:53 SW 22 16.09 Fair CLR 32.2 -1.7 11% 30 75.41 1004.7
19 18:53 SW 19 16.09 Fair CLR 33.3 -1.1 11% 31 75.44 1005.0
19 17:53 SW 20 G 41 16.09 Fair CLR 33.9 1.7 13% 31 75.44 1005.1
19 16:53 SW 24 G 52 16.09 Fair CLR 35 2.8 36.1 29.4 13% 32 75.49 1005.4
19 15:53 SW 24 G 41 16.09 Fair CLR 34.4 1.7 13% 32 75.51 1005.8
19 14:53 SW 41 G 59 16.09 Fair and Breezy CLR 36.1 3.9 13% 34 75.54 1006.0
19 13:53 S 22 G 41 16.09 Fair CLR 34.4 2.8 14% 32 75.67 1007.5
19 12:53 S 17 G 37 16.09 Fair CLR 32.2 0 13% 30 75.74 1008.7
19 11:53 SE 15 16.09 Fair CLR 31.7 1.1 14% 30 75.82 1009.6
19 10:53 SE 7 16.09 Fair CLR 29.4 0 29.4 20 15% 28 75.87 1010.3
19 09:53 Vrbl 6 16.09 Fair CLR 27.8 0.6 17% 27 75.87 1010.4
19 08:53 W 6 16.09 Fair CLR 25.6 0.6 19% 25 75.87 1010.5
19 07:53 Calm 16.09 Fair CLR 23.3 1.1 23% 75.84 1010.3
19 06:53 N 7 16.09 Fair CLR 21.1 -1.7 22% 75.79 1009.8
19 05:53 N 9 16.09 Fair CLR 20 -1.1 24% 75.74 1009.2
19 04:53 N 9 16.09 Fair CLR 20.6 -2.8 29.4 20.6 21% 75.69 1008.3
19 03:53 Calm 16.09 Fair CLR 22.2 -3.3 18% 75.67 1008.0
19 02:53 Calm 16.09 Fair CLR 23.9 -3.9 15% 24 75.67 1007.7
19 01:53 W 9 16.09 Fair CLR 24.4 -4.4 14% 24 75.67 1007.7
19 00:53 SW 20 G 39 16.09 Fair CLR 26.7 -2.8 14% 26 75.64 1007.3
18 23:53 S 24 16.09 Fair CLR 27.8 -3.3 13% 26 75.64 1007.3
18 22:53 SW 20 16.09 Fair CLR 28.9 -6.1 34.4 28.9 10% 27 75.62 1007.0
18 21:53 SW 19 16.09 Fair CLR 30 -6.7 9% 28 75.62 1006.9
18 20:53 SW 15 16.09 Fair CLR 31.1 -10 6% 29 75.57 1006.4
18 19:53 SW 15 16.09 Fair CLR 32.2 -10 6% 30 75.54 1006.0
18 18:53 SW 28 16.09 Fair CLR 33.9 -8.3 6% 31 75.51 1005.7
18 17:53 S 20 16.09 Fair CLR 33.9 -5 8% 31 75.49 1005.5
18 16:53 SW 19 G 31 16.09 Fair CLR 34.4 -2.8 35.6 31.1 9% 32 75.51 1005.8
18 15:53 SW 20 G 39 16.09 Fair CLR 34.4 -2.2 9% 32 75.57 1006.3
18 14:53 S 22 G 41 16.09 Fair CLR 34.4 -1.7 10% 32 75.62 1007.0
18 13:53 SE 17 16.09 Fair CLR 35 -0.6 10% 32 75.67 1007.4
18 12:53 SE 13 16.09 Fair CLR 33.9 0 11% 31 75.69 1007.9
18 11:53 SE 13 G 33 16.09 Fair CLR 32.2 0.6 13% 30 75.74 1008.6
18 10:53 SE 15 G 28 16.09 Fair CLR 31.7 1.7 31.7 22.2 15% 30 75.79 1009.1
18 09:53 E 13 16.09 Fair CLR 30 2.2 17% 28 75.79 1009.3
18 08:53 SE 9 16.09 Fair CLR 27.8 2.2 19% 27 75.82 1009.7
Date Time (pdt) Wind (kph) Vis. (km) Weather Sky Cond. Air Dwpt Max. Min. Relative Humidity Wind Chill (°C) Heat Index (°C) altimeter (cm) sea level (mb) 1 hr 3 hr 6 hr
6 hour
Temperature (ºC) Pressure Precipitation (cm)